This is the latest recevied weather packets stored in our database for station/object UR7D-10. If no packets are shown the sender has not sent any weather packets the latest 10 day(s).
| Time | Temp. | Humidity | Pressure | Rain* | Wind** | Luminosity | Snow |
|---|---|---|---|---|---|---|---|
| 1777953966 | 9.44° C | 70% | 1016.4 hPa | 0 mm | - | - | - |
| 1777943156 | 10° C | 65% | 1016 hPa | 0 mm | - | - | - |
| 1777917932 | 22.22° C | 29% | 1016.1 hPa | 0 mm | - | - | - |
| 1777899916 | 24.44° C | 30% | 1017.8 hPa | 0 mm | - | - | - |
| 1777896312 | 23.89° C | 31% | 1018.2 hPa | 0 mm | - | - | - |
| 1777892707 | 22.78° C | 33% | 1018.9 hPa | 0 mm | - | - | - |
| 1777889104 | 22.22° C | 35% | 1019.3 hPa | 0 mm | - | - | - |
| 1777885502 | 21.11° C | 38% | 1020.3 hPa | 0 mm | - | - | - |
| 1777878292 | 15.56° C | 61% | 1020.3 hPa | 0 mm | - | - | - |
| 1777874692 | 10.56° C | 74% | 1020.6 hPa | 0 mm | - | - | - |
| 1777871085 | 7.78° C | 79% | 1020.5 hPa | 0 mm | - | - | - |
| 1777867483 | 7.22° C | 80% | 1020.1 hPa | 0 mm | - | - | - |
| 1777835051 | 17.78° C | 42% | 1019.2 hPa | 0 mm | - | - | - |
| 1777817035 | 21.11° C | 34% | 1019.7 hPa | 0 mm | - | - | - |
| 1777809828 | 19.44° C | 39% | 1020.8 hPa | 0 mm | - | - | - |
| 1777795413 | 15.56° C | 44% | 1023.8 hPa | 0 mm | - | - | - |
| 1777788207 | 9.44° C | 65% | 1023.9 hPa | 0 mm | - | - | - |
| 1777784605 | 7.22° C | 72% | 1023.7 hPa | 0 mm | - | - | - |
| 1777780999 | 6.11° C | 72% | 1023.4 hPa | 0 mm | - | - | - |
| 1777777397 | 7.22° C | 67% | 1023 hPa | 0 mm | - | - | - |
| 1777773793 | 6.11° C | 70% | 1022.7 hPa | 0 mm | - | - | - |
| 1777734156 | 19.44° C | 32% | 1021.1 hPa | 0 mm | - | - | - |
| 1777723347 | 18.33° C | 36% | 1022.3 hPa | 0 mm | - | - | - |
| 1777719740 | 17.78° C | 39% | 1023.2 hPa | 0 mm | - | - | - |
| 1777712533 | 16.11° C | 44% | 1024.5 hPa | 0 mm | - | - | - |
* Rain latest hour (hover to see other rain measurements)
** Current wind speed in m/s (hover to see current wind gust speed)